OPS 4682 DEB, 14049

Orbit data source: Space-Track

OPS 4682 DEB, 14049 is space debris in LEO originally from a launch on Sat, 03 Apr 1965 UTC launched from the Air Force Western Test Range (AFWTR). Debris objects in space refer to the collection of defunct objects orbiting the Earth. Examples of debris include non-operational satellites, rocket bodies, and fragments generated from explosions, collisions, or faulty payload assembly.

Loading next visibility...
Identifier
14049, 1965-027L
Orbit
LEO
Country
Flag of USUS
Related business
Manufacturer
Unknown
Mission
Spacecraft
Bus & Motor
Unknown
Mass
Unknown
Launch date (UTC)
1965-04-03 (61 years ago)
Launch vehicle
Unknown
Launch site
Air Force Western Test Range (AFWTR)
Object type
Payload
Rocket body
Debris
Shape & HBR
Unknown shape, 0.1 m
Radar Cross Section
Small (<0.1 m²)

Expand to show TLE details & history
Last TLE update: 4 days ago

TLE from 4 days ago
0 OPS 4682 DEB
1 14049U 65027L   25298.67671529  .00000495  00000-0  17447-2 0  9990
2 14049  90.2457   3.2140 0042331  83.7537  72.0812 12.94497913 27887
Epoch: 2025-10-25T16:14Z
TLE epoch observation values (Epoch: 2025-10-25T16:14:28.201Z)
Latitude
23.72177°
Longitude
-94.59992°
Altitude
1,276.724 km
Speed
7.224 km/s
True Right ascension
12h 13m 17s
True Declination
23° 36' 14"
Sunlit
Object was in daylight at epoch
Visualization orbit readout
Latitude
Unknown
Longitude
Unknown
Altitude
Unknown
Speed
Unknown
Apparent Right ascension
Unknown
Apparent Declination
Unknown
Sunlit
N/A
Visualization observer readout
Local Sidereal Time
22:15:23
Azimuth
Unknown
Elevation
Unknown
Doppler factor
Unknown
Orbital elements
Apogee altitude
1,313.277 km
Perigee altitude
1,248.434 km
Semi-major axis
7,658.993 km
Eccentricity
0.00423
Inclination
90.2457°
RAAN
3.214°
Arg. of periapsis
83.7537°
True anomaly
72.5435°
Mean anomaly
72.0812°
Eccentric anomaly
72.31227°
Mean motion
3.23807 °/min
Orbital period
111.18 mins
BSTAR
0.0017447
Loading maneuver chart data...
Computing Atmospheric mass density...
Loading historical data...
Loading historical data...
Loading historical data...
Loading historical data...
Loading historical data...
Loading historical data...
Loading historical data...

Documentation

Showing up to 5 results
|